Date String (YYYY-MM-DD hh:mm:ss) UTC,Instrument flags,Ambient pressure (hPa),Sample flow (lpm),Bypass flow (lpm),Sample temperature (°C),Ambient temperature (°C),ASC tube jacket temperature (°C),LED temperature (°C),Box temperature (°C),Sample RH (%),Span deviation,Mass concentration (μg/m³),Mass concentration (μg/m³),Mass concentration (μg/m³)
DateTimeUTC,F1_M11,P_M11,Q1_M11,Q2_M11,T1_M11,T2_M11,T3_M11,T4_M11,T5_M11,U1_M11,ZSPAN_M11,X2_M11,X0_M11,X1_M11
2022-07-29 13:00:00,,0831.0,4.99,0.00,31.3,28.3,00.0,39.7,32.2,34.5,-000.5,0008.95,0011.66,0008.54
2022-07-29 13:01:00,,0831.0,5.01,0.00,31.2,28.4,00.0,39.7,32.2,34.7,-000.4,0008.98,0011.82,0008.57
2022-07-29 13:02:00,,0831.0,5.00,0.00,31.2,28.5,00.0,39.7,32.2,34.7,-000.4,0009.00,0012.01,0008.60
2022-07-29 13:03:00,,0831.0,4.99,0.00,31.1,28.6,00.0,39.7,32.2,35.0,-000.4,0009.00,0012.03,0008.61
2022-07-29 13:04:00,,0831.0,5.01,0.00,31.2,28.7,00.0,39.7,32.3,35.4,-000.4,0008.91,0011.97,0008.50
2022-07-29 13:05:00,,0831.0,4.98,0.00,31.4,28.8,00.0,39.7,32.5,34.6,0000.1,0008.78,0011.78,0008.38
2022-07-29 13:06:00,,0831.0,5.01,0.00,31.6,28.9,00.0,39.7,32.5,34.2,0000.1,0008.74,0011.68,0008.34
2022-07-29 13:07:00,,0831.0,5.01,0.00,31.7,28.9,00.0,39.7,32.5,34.1,-000.3,0008.72,0011.67,0008.31
2022-07-29 13:08:00,,0831.0,5.00,0.00,31.7,29.0,00.0,39.7,32.5,34.0,-000.4,0008.75,0011.74,0008.30
2022-07-29 13:09:00,,0831.0,5.00,0.00,31.7,29.1,00.0,39.8,32.5,34.1,-000.5,0008.73,0011.69,0008.28
2022-07-29 13:10:00,,0831.0,5.00,0.00,31.7,29.1,00.0,39.8,32.5,34.4,-000.7,0008.68,0011.63,0008.26
2022-07-29 13:11:00,,0830.9,5.01,0.00,31.7,29.2,00.0,39.9,32.5,34.6,-000.5,0008.68,0011.69,0008.24
2022-07-29 13:12:00,,0831.0,5.00,0.00,31.7,29.2,00.0,39.9,32.5,34.6,-000.6,0008.70,0011.64,0008.24
2022-07-29 13:13:00,,0831.0,5.00,0.00,31.6,29.2,00.0,39.9,32.5,34.5,-001.0,0008.72,0011.98,0008.27
2022-07-29 13:14:00,,0831.0,4.99,0.00,31.6,29.3,00.0,39.9,32.5,34.4,-001.0,0008.74,0012.22,0008.29
2022-07-29 13:15:00,,0831.0,5.00,0.00,31.6,29.3,00.0,40.0,32.6,34.4,-000.9,0008.81,0012.64,0008.36
2022-07-29 13:16:00,,0831.0,5.01,0.00,31.6,29.3,00.0,40.0,32.6,34.4,-001.0,0008.93,0012.81,0008.48
2022-07-29 13:17:00,,0831.1,4.99,0.00,31.5,29.4,00.0,40.0,32.6,34.8,-001.3,0008.98,0012.87,0008.53
2022-07-29 13:18:00,,0831.0,5.02,0.00,31.6,29.4,00.0,40.0,32.7,35.1,-001.3,0009.04,0012.99,0008.58
2022-07-29 13:19:00,,0831.1,4.99,0.00,31.8,29.4,00.0,40.0,32.8,34.6,-001.2,0009.02,0012.94,0008.60
2022-07-29 13:20:00,,0831.1,5.00,0.00,31.9,29.5,00.0,40.0,32.9,34.1,-001.4,0009.02,0012.95,0008.61
2022-07-29 13:21:00,,0831.1,4.99,0.00,32.0,29.3,00.0,40.0,32.8,34.1,-001.7,0009.02,0012.98,0008.59
2022-07-29 13:22:00,,0831.1,5.00,0.00,31.9,28.6,00.0,40.0,32.5,33.4,-001.6,0009.04,0013.34,0008.60
2022-07-29 13:23:00,,0831.1,4.99,0.00,31.9,28.0,00.0,40.0,32.4,33.6,-001.5,0009.06,0013.59,0008.63
2022-07-29 13:24:00,,0831.1,5.00,0.00,31.8,27.8,00.0,40.0,32.3,33.9,-001.2,0009.06,0013.79,0008.62
2022-07-29 13:25:00,,0831.1,5.00,0.00,31.6,27.8,00.0,40.0,32.2,34.2,-001.2,0009.12,0013.67,0008.65
2022-07-29 13:26:00,,0831.1,5.00,0.00,31.5,27.9,00.0,40.0,32.2,34.4,-001.4,0009.16,0013.47,0008.67
2022-07-29 13:27:00,,0831.1,5.01,0.00,31.5,28.1,00.0,39.9,32.2,35.0,-001.4,0009.21,0013.64,0008.67
2022-07-29 13:28:00,,0831.0,4.99,0.00,31.5,28.2,00.0,39.9,32.3,35.0,-001.1,0009.21,0013.67,0008.66
2022-07-29 13:29:00,,0831.1,4.99,0.00,31.6,28.4,00.0,39.9,32.4,34.5,-001.0,0009.23,0013.75,0008.66
2022-07-29 13:30:00,,0831.1,5.02,0.00,31.7,28.5,00.0,39.9,32.4,34.4,-001.1,0009.30,0013.90,0008.70
2022-07-29 13:31:00,,0831.1,4.99,0.00,31.7,28.6,00.0,39.9,32.4,34.2,-001.2,0009.35,0013.93,0008.75
2022-07-29 13:32:00,,0831.2,5.00,0.00,31.6,28.7,00.0,39.9,32.4,34.6,-001.1,0009.37,0014.50,0008.79
2022-07-29 13:33:00,,0831.2,5.00,0.00,31.6,28.8,00.0,39.9,32.4,34.7,-001.2,0009.37,0014.98,0008.79
2022-07-29 13:34:00,,0831.1,5.00,0.00,31.6,28.9,00.0,39.9,32.4,35.0,-001.1,0009.37,0014.66,0008.78
2022-07-29 13:35:00,,0831.2,4.99,0.00,31.7,29.0,00.0,40.0,32.5,34.3,-001.1,0009.37,0014.29,0008.76
2022-07-29 13:36:00,,0831.2,5.00,0.00,31.7,29.0,00.0,40.0,32.5,34.7,-001.2,0009.30,0013.91,0008.71
2022-07-29 13:37:00,,0831.2,5.00,0.00,31.7,29.1,00.0,40.0,32.5,34.7,-001.0,0009.23,0013.79,0008.66
2022-07-29 13:38:00,,0831.2,5.00,0.00,31.7,29.1,00.0,40.0,32.5,34.5,-000.7,0009.14,0013.53,0008.61
2022-07-29 13:39:00,,0831.2,5.01,0.00,31.7,29.2,00.0,40.0,32.6,34.3,-000.7,0009.13,0013.47,0008.61
2022-07-29 13:40:00,,0831.2,5.00,0.00,31.6,29.2,00.0,40.0,32.6,34.1,-000.9,0009.17,0013.53,0008.63
2022-07-29 13:41:00,,0831.2,4.99,0.00,31.6,29.3,00.0,40.0,32.6,34.2,-001.0,0009.17,0013.48,0008.64
2022-07-29 13:42:00,,0831.2,5.00,0.00,31.6,29.3,00.0,40.0,32.6,34.2,-000.7,0009.20,0013.49,0008.66
2022-07-29 13:43:00,,0831.2,5.00,0.00,31.6,29.3,00.0,40.1,32.6,34.3,-000.8,0009.22,0013.44,0008.66
2022-07-29 13:44:00,,0831.2,5.01,0.00,31.6,29.3,00.0,40.1,32.6,34.6,-000.8,0009.26,0012.52,0008.67
2022-07-29 13:45:00,,0831.2,4.99,0.00,31.5,28.9,00.0,40.0,32.5,34.5,-001.2,0009.34,0012.73,0008.72
2022-07-29 13:46:00,,0831.2,5.00,0.00,31.5,28.1,00.0,40.0,32.3,34.4,-001.5,0009.39,0012.86,0008.79
2022-07-29 13:47:00,,0831.2,5.00,0.00,31.4,27.8,00.0,39.9,32.3,35.0,-001.3,0009.40,0013.09,0008.81
2022-07-29 13:48:00,,0831.2,5.00,0.00,31.4,27.8,00.0,39.9,32.2,35.0,-001.5,0009.36,0013.13,0008.80
2022-07-29 13:49:00,,0831.1,5.00,0.00,31.4,27.9,00.0,39.9,32.3,34.8,-001.7,0009.38,0013.19,0008.78
2022-07-29 13:50:00,,0831.2,5.00,0.00,31.4,28.0,00.0,39.8,32.3,34.6,-001.8,0009.40,0013.26,0008.81
2022-07-29 13:51:00,,0831.2,5.00,0.00,31.4,28.1,00.0,39.8,32.2,34.8,-001.8,0009.39,0013.25,0008.81
2022-07-29 13:52:00,,0831.2,4.99,0.00,31.5,28.3,00.0,39.8,32.3,34.8,-001.5,0009.36,0013.22,0008.78
2022-07-29 13:53:00,,0831.1,5.01,0.00,31.6,28.4,00.0,39.8,32.4,34.1,-001.3,0009.31,0013.26,0008.72
2022-07-29 13:54:00,,0831.2,4.99,0.00,31.6,28.5,00.0,39.8,32.4,34.0,-001.2,0009.30,0013.32,0008.70
2022-07-29 13:55:00,,0831.2,5.00,0.00,31.6,28.6,00.0,39.8,32.4,34.1,-001.2,0009.24,0013.30,0008.67
2022-07-29 13:56:00,,0831.2,5.01,0.00,31.6,28.7,00.0,39.8,32.4,34.1,-001.1,0009.16,0012.95,0008.61
2022-07-29 13:57:00,,0831.2,5.00,0.00,31.6,28.8,00.0,39.9,32.4,33.9,-001.1,0009.14,0012.84,0008.58
2022-07-29 13:58:00,,0831.2,4.99,0.00,31.5,28.9,00.0,39.9,32.4,34.1,-001.2,0009.17,0012.76,0008.60
2022-07-29 13:59:00,,0831.2,5.00,0.00,31.5,29.0,00.0,39.9,32.4,34.5,-001.1,0009.18,0012.60,0008.63
